Regional Weather Roundup
Issued by NWS Charleston, SC

Current Version | Previous Version | Text Only | Print | Product List | Glossary Off
Versions: 1 2 3 4 5 6 7 8 9 10 11 12 13 14 15 16 17 18 19 20 21 22 23 24 25 26 27 28 29 30 31 32 33 34 35 36 37 38 39 40 41 42 43 44 45 46 47 48 49 50

000
ASUS42 KCHS 302127
RWRCHS

REGIONAL WEATHER ROUNDUP
NATIONAL WEATHER SERVICE CHARLESTON SC
500 PM EDT SUN AUG 30 2015

NOTE: "FAIR" INDICATES FEW OR NO CLOUDS BELOW 12,000 FEET WITH NO
SIGNIFICANT WEATHER AND/OR OBSTRUCTIONS TO VISIBILITY.

NOT ALL STATIONS ARE QUALITY CONTROLLED BY THE NATIONAL
WEATHER SERVICE. USE DATA WITH CAUTION...ESPECIALLY
DEWPOINT OBSERVATIONS.

SCZ027-030-031-034>040-042>050-302200-
...SOUTHEAST SOUTH CAROLINA...

CITY           SKY/WX    TMP DP  RH WIND       PRES   REMARKS
N CHARLESTON   LGT RAIN  74  72  93 E12       30.08F
WATERFRONT PRK   N/A     75  74  97 E7        30.09F
MOUNT PLEASANT RAIN      73  73 100 E3        30.11F
JOHNS ISLAND   LGT RAIN  75  73  94 E6        30.09F
PINOPOLIS      NOT AVBL
MONCKS CORNER  LGT RAIN  75  72  88 SE5       30.10F
SUMMERVILLE    LGT RAIN  73  73 100 E5        30.09F
BEAUFORT MCAS  RAIN      75  74  96 E13G20    30.05F
BEAUFORT ARPT  FAIR      73  73 100 E10       30.05F FOG
HILTON HEAD IS LGT RAIN  75  73  94 NE12G20   30.06F
WALTERBORO     LGT RAIN  75  72  88 CALM      30.08S
ALLENDALE      FAIR      77  72  83 SE12      30.06S

...SOUTHERN MIDLANDS AND PEE DEE...

CITY           SKY/WX    TMP DP  RH WIND       PRES   REMARKS
GEORGETOWN     NOT AVBL
KINGSTREE      NOT AVBL
ORANGEBURG     CLOUDY    76  71  85 SE8       30.08F
BARNWELL       FAIR      77  75  94 SE7       30.08S
AIKEN          MOCLDY    73  68  83 NE10      30.11F
MANNING        CLOUDY    73  73 100 CALM      30.11F
COLUMBIA       CLOUDY    76  70  82 NE6       30.09F
SUMTER         DRIZZLE   73  72  94 E12       30.09F
FLORENCE       LGT RAIN  72  70  93 NE7       30.14S FOG
MYRTLE BEACH   LGT RAIN  79  72  78 NE7       30.15S FOG
N MYRTLE BEACH LGT RAIN  78  74  87 E5        30.12F

$$

GAZ063-065-086>088-099>101-113>116-118-119-134>141-150-302200-
...SOUTHEAST GEORGIA...

CITY           SKY/WX    TMP DP  RH WIND       PRES   REMARKS
SAVANNAH ARPT  CLOUDY    78  73  84 E18       30.05F
HUNTER AAF     CLOUDY    77  77 100 E15       30.02F
FORT STEWART   LGT RAIN  79  73  83 E15G25    30.02S
STATESBORO     CLOUDY    76  76 100 SE5       30.07R
SYLVANIA       CLOUDY    76  76  98 SE5       30.09R
CLAXTON        NOT AVBL

...CSRA...CENTRAL AND FAR SOUTHEAST GEORGIA...

CITY           SKY/WX    TMP DP  RH WIND       PRES   REMARKS
THOMSON        CLOUDY    70  70  99 N10G16    30.13R
AUGUSTA-BUSH   RAIN      75  74  96 S5        30.05R FOG
AUGUSTA-DANIEL HVY RAIN  83  72  69 NE8       30.05F
SWAINSBORO     CLOUDY   N/A N/A N/A SE13      30.07F
VIDALIA        CLOUDY    77  73  88 E9        30.05F
EASTMAN        FAIR      85  72  64 N5        30.05S HX  91
HAZLEHURST     MOCLDY    81  75  82 E8        30.02F
ALMA           MOSUNNY   83  74  74 E8        30.01F
WAYCROSS       MOSUNNY   86  77  74 E10       30.01R HX  96
JESUP          MOCLDY    84  77  79 E12G17    30.03R HX  94
BAXLEY         PTSUNNY   82  75  78 E8        30.02S
BRUNSWICK      CLOUDY    79  73  83 E7        30.04S
SAINT SIMONS   CLOUDY    79  74  84 SE9       30.03R

$$

SCZ027-028-034-036>038-045-046-048>050-GAZ119-141-302200-
...LAKE AND SUPPLEMENTAL COASTAL OBSERVATIONS...

STATION/POSITION TIME  TEMP    WIND        PRES    WAVE   SWELL
                       AIR SEA DIR/SP/G            HT/PER HT/PER/DIR
                 (UTC) (F)     (DEG/KT/KT) (MB)    (FT/S) (FT/S/D)
UPR LAKE MARION  NOT AVBL
WINYAH BAY       2045   76     210/  4     1019.0S
LAKE MURRAY      2000   73      40/  2/  4 1019.3F
ACE BASIN NERRS  NOT AVBL
FORT PULASKI     NOT AVBL
SAPELO ISLAND    2100   76      50/  7     1017.0S

$$

ANZ835-935-AMZ111-154-330-350-352-354-370-450-454-472-302200-
...C-MAN AND BUOY OBSERVATIONS...

STATION/POSITION TIME  TEMP    WIND        PRES    WAVE   SWELL
                       AIR SEA DIR/SP/G            HT/PER HT/PER/DIR
                 (UTC) (F)     (DEG/KT/KT) (MB)    (FT/S) (FT/S/D)
BUOY 41004       2050   75 84   30/ 12/ 14 1019.5F   4/10   3/10
BUOY 41008       2050   79 84  100/ 19/ 23 1017.2F   5/10   3/120/10
FOLLY BEACH CMAN 2100   76      80/ 13/ 15 1019.2F
CAPERS NEARSHORE NOT AVBL
FRIPP NEARSHORE  2000   76      70/ 17/ 21 1018.8F


STATION/POSITION TIME  TEMP    WIND        PRES    WAVE   SWELL
                       AIR SEA DIR/SP/G            HT/PER HT/PER/DIR
                 (UTC) (F)     (DEG/KT/KT) (MB)    (FT/S) (FT/S/D)
5E ST. MARYS GA  2021      85                N/A     4/11   2/100/11
FRYING PAN BUOY  2050   81 82   90/  8/ 10 1020.4R   4/11   3/180/11
BUOY 41025       2050   79 81   20/  4/  6 1019.8R   3/11   3/ 80/11
CAPE LOOKOUT NC  2100   79     140/  3/  4 1019.8R
BUOY 41002       2050   83 85   60/  6/  8 1020.2F   4/10   5/140/10
BUOY 41010       2020   83 86  160/ 16/ 19 1017.2F
ST AUGUSTINE FL  2100   77 85  180/  8/  9 1017.1F


$$


USA.gov is the U.S. government's official web portal to all federal, state and local government web resources and services.